Item Display Status Humidity-temperature Sensor

Elevation Above Sea Level: 3 m

 

Deployed Sensor

  • Serial Number: 61085259
  • NDBC Property Number: 36517
  • Start Date: 10/24/2013 (12:56:34 Z)
  • End Date: 4/27/2015 (20:35:00 Z)
Relative Humidity [%]     6 entries per hour
Showing data from 4/27/2015 (18:00:00 Z) to 4/26/2015 (00:00:01 Z)
Previous Next [ Day | 3-Days | 7-Days ]
First Last
Prev [ Day | 3-Days | 7-Days ] Next
First Last

Start Time:     :
End Time:     :     
Time (in GMT) :00 :50 :40 :30 :20 :10
Previous Next [ Day | 3-Days | 7-Days ]
First Last
Prev [ Day | 3-Days | 7-Days ] Next
First Last


123 => good data
MM => data is determined as missing
-- => data not received/configured
Back to Top Back to Top
4/27/2015 18:00 to 17:10 86.11 86.36 87.64 88.96 89.51 89.68
4/27/2015 17:00 to 16:10 88.89 89.22 88.91 86.69 86.13 82.50
4/27/2015 16:00 to 15:10 76.75 77.10 76.07 76.23 74.99 74.44
4/27/2015 15:00 to 14:10 74.31 73.53 74.64 74.39 74.66 74.99
4/27/2015 14:00 to 13:10 74.95 76.09 76.11 76.68 76.73 77.47
4/27/2015 13:00 to 12:10 77.69 77.72 76.85 76.91 76.75 76.85
4/27/2015 12:00 to 11:10 77.45 77.26 77.12 75.98 76.54 76.33
4/27/2015 11:00 to 10:10 76.75 76.60 76.23 75.84 75.63 75.84
4/27/2015 10:00 to 9:10 76.07 75.57 74.23 74.25 76.40 76.85
4/27/2015 09:00 to 8:10 77.22 76.44 78.11 77.57 77.28 77.01
4/27/2015 08:00 to 7:10 77.78 77.32 75.61 76.56 77.20 77.28
4/27/2015 07:00 to 6:10 76.40 76.15 77.30 76.29 77.30 77.98
4/27/2015 06:00 to 5:10 78.35 79.06 79.72 78.83 78.02 77.76
4/27/2015 05:00 to 4:10 77.22 76.75 77.82 76.66 75.38 74.25
4/27/2015 04:00 to 3:10 74.21 74.77 76.91 76.97 78.40 78.87
4/27/2015 03:00 to 2:10 78.81 79.28 78.93 78.27 79.24 79.80
4/27/2015 02:00 to 1:10 79.20 78.99 79.74 79.49 79.14 79.30
4/27/2015 01:00 to 0:10 79.01 78.54 78.48 78.40 77.65 76.56
4/27/2015 00:00 to 23:10 76.70 76.58 77.06 76.19 77.03 76.29
4/26/2015 23:00 to 22:10 77.41 76.04 76.40 76.37 73.73 75.14
4/26/2015 22:00 to 21:10 75.08 74.79 74.52 74.99 74.99 75.61
4/26/2015 21:00 to 20:10 74.31 75.86 76.00 76.04 74.58 75.24
4/26/2015 20:00 to 19:10 74.52 73.69 73.90 74.87 74.70 74.23
4/26/2015 19:00 to 18:10 73.55 72.95 73.76 74.37 72.87 73.16
4/26/2015 18:00 to 17:10 73.49 74.19 74.02 73.78 74.25 74.31
4/26/2015 17:00 to 16:10 72.97 74.58 74.39 73.55 73.32 71.51
4/26/2015 16:00 to 15:10 72.37 74.89 74.81 73.45 74.25 73.01
4/26/2015 15:00 to 14:10 73.30 74.58 73.61 76.00 80.07 76.77
4/26/2015 14:00 to 13:10 74.00 73.94 74.04 74.39 73.84 75.12
4/26/2015 13:00 to 12:10 75.76 76.21 75.26 75.03 75.55 75.22
4/26/2015 12:00 to 11:10 74.35 74.68 75.12 74.29 74.97 76.40
4/26/2015 11:00 to 10:10 75.80 74.83 75.45 74.93 75.30 74.99
4/26/2015 10:00 to 9:10 75.53 75.55 75.32 75.26 73.84 73.98
4/26/2015 09:00 to 8:10 74.04 75.36 73.94 71.82 72.44 74.19
4/26/2015 08:00 to 7:10 -- -- -- -- -- --
4/26/2015 07:00 to 6:10 73.82 72.15 71.67 72.56 72.29 74.04
4/26/2015 06:00 to 5:10 -- -- -- -- -- --
4/26/2015 05:00 to 4:10 72.64 73.01 74.29 76.66 78.46 78.31
4/26/2015 04:00 to 3:10 78.48 77.94 77.26 76.70 76.60 77.30
4/26/2015 03:00 to 2:10 75.92 77.06 76.37 76.31 76.87 79.59
4/26/2015 02:00 to 1:10 79.20 78.09 77.34 77.01 76.60 75.84
4/26/2015 01:00 to 0:10 77.28 75.78 76.52 76.79 77.47 77.65

 

 

 

Air Temperature [°C]     6 entries per hour
Showing data from 4/27/2015 (18:00:00 Z) to 4/26/2015 (00:00:01 Z)
Previous Next [ Day | 3-Days | 7-Days ]
First Last
Prev [ Day | 3-Days | 7-Days ] Next
First Last

Start Time:     :
End Time:     :     
Time (in GMT) :00 :50 :40 :30 :20 :10
Previous Next [ Day | 3-Days | 7-Days ]
First Last
Prev [ Day | 3-Days | 7-Days ] Next
First Last


123 => good data
MM => data is determined as missing
-- => data not received/configured
Back to Top Back to Top
4/27/2015 18:00 to 17:10 26.36 26.02 26.04 25.94 25.91 25.77
4/27/2015 17:00 to 16:10 26.01 25.80 26.10 26.24 26.67 26.49
4/27/2015 16:00 to 15:10 27.67 27.70 27.63 27.89 27.73 27.63
4/27/2015 15:00 to 14:10 27.67 27.81 27.85 27.73 27.70 27.66
4/27/2015 14:00 to 13:10 27.53 27.59 27.57 27.39 27.41 27.33
4/27/2015 13:00 to 12:10 27.35 27.40 27.40 27.36 27.32 27.44
4/27/2015 12:00 to 11:10 27.35 27.38 27.38 27.37 27.56 27.40
4/27/2015 11:00 to 10:10 27.51 27.40 27.39 27.37 27.35 27.55
4/27/2015 10:00 to 9:10 27.50 27.53 27.49 27.40 27.50 27.66
4/27/2015 09:00 to 8:10 27.50 27.41 27.50 27.51 27.56 27.67
4/27/2015 08:00 to 7:10 27.60 27.64 27.64 27.58 27.63 27.66
4/27/2015 07:00 to 6:10 27.72 27.81 27.76 27.86 27.70 27.73
4/27/2015 06:00 to 5:10 27.66 27.69 27.58 27.71 27.78 27.75
4/27/2015 05:00 to 4:10 27.80 27.74 27.81 27.94 27.96 27.97
4/27/2015 04:00 to 3:10 27.89 27.84 27.82 27.69 27.61 27.57
4/27/2015 03:00 to 2:10 27.68 27.48 27.67 27.41 27.57 27.53
4/27/2015 02:00 to 1:10 27.51 27.38 27.42 27.44 27.42 27.32
4/27/2015 01:00 to 0:10 27.39 27.48 27.50 27.65 27.51 27.74
4/27/2015 00:00 to 23:10 27.75 27.57 27.57 27.44 27.72 27.70
4/26/2015 23:00 to 22:10 27.65 27.77 27.75 28.00 27.87 27.94
4/26/2015 22:00 to 21:10 27.84 27.95 27.67 27.71 27.90 27.86
4/26/2015 21:00 to 20:10 27.80 27.86 27.71 27.86 27.86 27.97
4/26/2015 20:00 to 19:10 27.91 27.82 27.96 27.87 27.88 27.98
4/26/2015 19:00 to 18:10 27.81 27.92 27.96 27.98 28.06 27.78
4/26/2015 18:00 to 17:10 27.72 27.94 27.73 27.85 27.86 27.87
4/26/2015 17:00 to 16:10 27.78 27.83 27.96 27.99 27.91 28.13
4/26/2015 16:00 to 15:10 27.87 27.80 27.84 27.92 27.88 27.86
4/26/2015 15:00 to 14:10 27.85 27.91 27.73 27.73 26.52 27.24
4/26/2015 14:00 to 13:10 27.64 27.61 27.46 27.60 27.50 27.65
4/26/2015 13:00 to 12:10 27.60 27.56 27.57 27.43 27.49 27.35
4/26/2015 12:00 to 11:10 27.43 27.34 27.39 27.37 27.29 27.52
4/26/2015 11:00 to 10:10 27.27 27.33 27.33 27.25 27.34 27.50
4/26/2015 10:00 to 9:10 27.43 27.50 27.47 27.30 27.33 27.31
4/26/2015 09:00 to 8:10 27.42 27.48 27.72 27.47 27.47 27.55
4/26/2015 08:00 to 7:10 -- -- -- -- -- --
4/26/2015 07:00 to 6:10 27.79 27.68 27.66 27.65 27.80 27.55
4/26/2015 06:00 to 5:10 -- -- -- -- -- --
4/26/2015 05:00 to 4:10 27.61 27.76 27.78 27.55 27.58 27.67
4/26/2015 04:00 to 3:10 27.73 27.88 27.75 27.68 27.78 27.85
4/26/2015 03:00 to 2:10 27.80 27.88 27.73 27.75 27.82 27.50
4/26/2015 02:00 to 1:10 27.40 27.58 27.90 27.77 27.77 27.83
4/26/2015 01:00 to 0:10 27.86 27.74 27.80 27.76 27.73 27.76